| time (UTC) | temp F | wind direction | speed MPH | gust MPH | rain 1hr in | rain 24hr in | rain mn in | humidity % | barometer mb |
| 20260503202529 | 58 | 217 | 5.0 | 12.0 | 0.00 | 0.00 | 0.00 | 74 | 1012.3 |
| 20260503202029 | 58 | 221 | 6.0 | 12.0 | 0.00 | 0.00 | 0.00 | 71 | 1012.3 |
| 20260503201539 | 59 | 138 | 4.0 | 12.0 | 0.00 | 0.00 | 0.00 | 74 | 1012.2 |
| 20260503201027 | 58 | 236 | 4.0 | 12.0 | 0.00 | 0.00 | 0.00 | 73 | 1012.3 |
| 20260503200527 | 59 | 227 | 3.0 | 11.0 | 0.00 | 0.00 | 0.00 | 74 | 1012.4 |
| 20260503200045 | 58 | 266 | 4.0 | 11.0 | 0.00 | 0.00 | 0.00 | 74 | 1012.3 |
| 20260503195528 | 59 | 196 | 3.0 | 12.0 | 0.00 | 0.00 | 0.00 | 72 | 1012.3 |
| 20260503195027 | 58 | 281 | 3.0 | 12.0 | 0.00 | 0.00 | 0.00 | 76 | 1012.2 |
| 20260503194539 | 58 | 294 | 3.0 | 9.0 | 0.00 | 0.00 | 0.00 | 75 | 1012.3 |
| 20260503194027 | 58 | 203 | 4.0 | 10.0 | 0.00 | 0.00 | 0.00 | 73 | 1012.4 |
| 20260503193528 | 59 | 269 | 4.0 | 10.0 | 0.00 | 0.00 | 0.00 | 72 | 1012.4 |
| 20260503193042 | 59 | 327 | 3.0 | 12.0 | 0.00 | 0.00 | 0.00 | 74 | 1012.3 |
| 20260503192529 | 58 | 277 | 5.0 | 14.0 | 0.00 | 0.00 | 0.00 | 75 | 1012.4 |
| 20260503192027 | 59 | 284 | 4.0 | 14.0 | 0.00 | 0.00 | 0.00 | 72 | 1012.4 |
| 20260503191555 | 59 | 196 | 5.0 | 11.0 | 0.00 | 0.00 | 0.00 | 69 | 1012.4 |
| 20260503191027 | 60 | 213 | 3.0 | 11.0 | 0.00 | 0.00 | 0.00 | 72 | 1012.5 |
| 20260503190528 | 60 | 224 | 4.0 | 11.0 | 0.00 | 0.00 | 0.00 | 71 | 1012.4 |
| 20260503190039 | 60 | 244 | 3.0 | 14.0 | 0.00 | 0.00 | 0.00 | 69 | 1012.3 |
| 20260503185527 | 60 | 306 | 6.0 | 14.0 | 0.00 | 0.00 | 0.00 | 67 | 1012.3 |
| 20260503185028 | 60 | 294 | 3.0 | 12.0 | 0.00 | 0.00 | 0.00 | 69 | 1012.4 |
| 20260503184604 | 58 | 190 | 3.0 | 12.0 | 0.00 | 0.00 | 0.00 | 71 | 1012.5 |
| 20260503184030 | 59 | 192 | 3.0 | 9.0 | 0.00 | 0.00 | 0.00 | 70 | 1012.3 |
| 20260503183528 | 58 | 259 | 3.0 | 10.0 | 0.00 | 0.00 | 0.00 | 71 | 1012.3 |
| 20260503183047 | 58 | 213 | 3.0 | 10.0 | 0.00 | 0.00 | 0.00 | 73 | 1012.5 |
| 20260503182527 | 57 | 242 | 4.0 | 10.0 | 0.00 | 0.00 | 0.00 | 74 | 1012.4 |
| 20260503182030 | 57 | 286 | 4.0 | 10.0 | 0.00 | 0.00 | 0.00 | 76 | 1012.3 |
| 20260503181545 | 57 | 290 | 5.0 | 10.0 | 0.00 | 0.00 | 0.00 | 75 | 1012.3 |
| 20260503181027 | 58 | 282 | 3.0 | 10.0 | 0.00 | 0.00 | 0.00 | 76 | 1012.4 |
| 20260503180527 | 57 | 184 | 4.0 | 10.0 | 0.00 | 0.00 | 0.00 | 77 | 1012.3 |
| 20260503180044 | 57 | 186 | 3.0 | 9.0 | 0.00 | 0.00 | 0.00 | 76 | 1012.4 |
| 20260503175527 | 58 | 236 | 4.0 | 9.0 | 0.00 | 0.00 | 0.00 | 74 | 1012.3 |
| 20260503175028 | 59 | 207 | 2.0 | 8.0 | 0.00 | 0.00 | 0.00 | 75 | 1012.2 |
| 20260503174552 | 56 | 240 | 3.0 | 8.0 | 0.00 | 0.00 | 0.00 | 78 | 1012.3 |
| 20260503174028 | 56 | 280 | 4.0 | 8.0 | 0.00 | 0.00 | 0.00 | 79 | 1012.3 |
| 20260503173528 | 56 | 280 | 2.0 | 9.0 | 0.00 | 0.00 | 0.00 | 80 | 1012.2 |
| 20260503173039 | 56 | 265 | 2.0 | 9.0 | 0.00 | 0.00 | 0.00 | 80 | 1012.2 |
| 20260503172528 | 56 | 269 | 2.0 | 9.0 | 0.00 | 0.00 | 0.00 | 79 | 1012.3 |
| 20260503172028 | 56 | 265 | 3.0 | 10.0 | 0.00 | 0.00 | 0.00 | 82 | 1012.2 |
| 20260503171538 | 55 | 267 | 4.0 | 10.0 | 0.00 | 0.00 | 0.00 | 83 | 1012.3 |
| 20260503171031 | 55 | 231 | 3.0 | 7.0 | 0.00 | 0.00 | 0.00 | 85 | 1012.3 |
| 20260503170528 | 55 | 292 | 3.0 | 7.0 | 0.00 | 0.00 | 0.00 | 85 | 1012.2 |
| 20260503150530 | 51 | 216 | 0.0 | 4.0 | 0.00 | 0.00 | 0.00 | 91 | 1011.6 |
| 20260503131030 | 51 | 0 | 0.0 | 4.0 | 0.00 | 0.00 | 0.00 | 91 | 1010.4 |
| 20260503130530 | 51 | 0 | 0.0 | 4.0 | 0.00 | 0.00 | 0.00 | 91 | 1010.3 |
| 20260503110533 | 51 | 263 | 1.0 | 4.0 | 0.00 | 0.00 | 0.00 | 90 | 1010.4 |
| 20260503081553 | 51 | 289 | 2.0 | 7.0 | 0.00 | 0.00 | 0.00 | 88 | 1011.2 |
| 20260503081028 | 51 | 286 | 1.0 | 4.0 | 0.00 | 0.00 | 0.00 | 88 | 1011.2 |
| 20260503080528 | 51 | 287 | 1.0 | 4.0 | 0.00 | 0.00 | 0.00 | 88 | 1011.2 |
| 20260503072532 | 51 | 227 | 0.0 | 2.0 | 0.00 | 0.00 | 0.00 | 88 | 1011.3 |
| 20260503072028 | 51 | 0 | 0.0 | 2.0 | 0.00 | 0.00 | 0.00 | 89 | 1011.4 |
| 20260503071604 | 51 | 0 | 0.0 | 2.0 | 0.00 | 0.00 | 0.00 | 89 | 1011.3 |
| 20260503071027 | 51 | 260 | 0.0 | 2.0 | 0.00 | 0.00 | 0.00 | 89 | 1011.4 |
| 20260503070530 | 51 | 261 | 0.0 | 2.0 | 0.00 | 0.00 | 0.00 | 88 | 1011.4 |
| 20260503055030 | 51 | 286 | 2.0 | 6.0 | 0.00 | 0.00 | 0.00 | 88 | 1011.6 |
| 20260503054554 | 51 | 288 | 3.0 | 9.0 | 0.00 | 0.00 | 0.00 | 87 | 1011.8 |
| 20260503054029 | 51 | 277 | 3.0 | 9.0 | 0.00 | 0.00 | 0.00 | 87 | 1011.7 |
| 20260503053529 | 51 | 288 | 3.0 | 8.0 | 0.00 | 0.00 | 0.00 | 87 | 1011.7 |
| 20260503053040 | 51 | 281 | 2.0 | 7.0 | 0.00 | 0.00 | 0.00 | 87 | 1011.7 |
| 20260503052529 | 51 | 286 | 2.0 | 7.0 | 0.00 | 0.00 | 0.00 | 88 | 1011.8 |
| 20260503052030 | 51 | 285 | 2.0 | 8.0 | 0.00 | 0.00 | 0.00 | 87 | 1011.9 |
| 20260503051547 | 51 | 284 | 3.0 | 8.0 | 0.00 | 0.00 | 0.00 | 87 | 1011.8 |
| 20260503051028 | 51 | 248 | 2.0 | 8.0 | 0.00 | 0.00 | 0.00 | 87 | 1011.8 |
| 20260503050530 | 51 | 284 | 3.0 | 8.0 | 0.00 | 0.00 | 0.00 | 87 | 1011.7 |
| 20260503050038 | 51 | 284 | 3.0 | 8.0 | 0.00 | 0.00 | 0.00 | 87 | 1011.8 |
| 20260503045530 | 51 | 277 | 2.0 | 9.0 | 0.00 | 0.00 | 0.00 | 87 | 1011.7 |
| 20260503045030 | 51 | 271 | 3.0 | 9.0 | 0.00 | 0.00 | 0.00 | 87 | 1011.8 |
| 20260503044544 | 51 | 272 | 3.0 | 8.0 | 0.00 | 0.00 | 0.00 | 87 | 1011.7 |
| 20260503044029 | 51 | 281 | 2.0 | 8.0 | 0.00 | 0.00 | 0.00 | 87 | 1011.7 |
| 20260503043529 | 51 | 267 | 3.0 | 8.0 | 0.00 | 0.00 | 0.00 | 87 | 1011.8 |
| 20260503043046 | 51 | 269 | 2.0 | 10.0 | 0.00 | 0.00 | 0.00 | 87 | 1011.6 |
| 20260503042530 | 51 | 290 | 3.0 | 10.0 | 0.00 | 0.00 | 0.00 | 87 | 1011.7 |
| 20260503042030 | 51 | 279 | 4.0 | 11.0 | 0.00 | 0.00 | 0.00 | 87 | 1011.6 |
| 20260503041545 | 51 | 281 | 4.0 | 11.0 | 0.00 | 0.00 | 0.00 | 87 | 1011.5 |
| 20260503041030 | 52 | 277 | 4.0 | 9.0 | 0.00 | 0.00 | 0.00 | 87 | 1011.4 |
| 20260503040532 | 52 | 277 | 3.0 | 9.0 | 0.00 | 0.00 | 0.00 | 87 | 1011.4 |
| 20260503040038 | 52 | 285 | 3.0 | 9.0 | 0.00 | 0.00 | 0.00 | 87 | 1011.4 |
| 20260503035533 | 52 | 279 | 5.0 | 9.0 | 0.00 | 0.00 | 0.00 | 86 | 1011.4 |
| 20260503035030 | 52 | 273 | 3.0 | 10.0 | 0.00 | 0.00 | 0.00 | 86 | 1011.5 |
| 20260503034543 | 52 | 275 | 4.0 | 10.0 | 0.00 | 0.00 | 0.00 | 86 | 1011.4 |
| 20260503034029 | 52 | 252 | 4.0 | 10.0 | 0.00 | 0.00 | 0.00 | 86 | 1011.3 |
| 20260503033530 | 52 | 288 | 3.0 | 9.0 | 0.00 | 0.00 | 0.00 | 86 | 1011.3 |
| 20260503033054 | 52 | 288 | 3.0 | 9.0 | 0.00 | 0.00 | 0.00 | 86 | 1011.2 |
| 20260503032529 | 52 | 207 | 3.0 | 10.0 | 0.00 | 0.00 | 0.00 | 86 | 1011.2 |
| 20260503032029 | 52 | 282 | 4.0 | 10.0 | 0.00 | 0.00 | 0.00 | 86 | 1011.2 |
| 20260503031544 | 52 | 258 | 3.0 | 9.0 | 0.00 | 0.00 | 0.00 | 86 | 1011.1 |
| 20260503031030 | 52 | 217 | 4.0 | 9.0 | 0.00 | 0.00 | 0.00 | 86 | 1011.1 |
| 20260503030529 | 52 | 234 | 4.0 | 9.0 | 0.00 | 0.00 | 0.00 | 86 | 1011.0 |
| 20260503030044 | 52 | 217 | 4.0 | 10.0 | 0.00 | 0.00 | 0.00 | 85 | 1010.8 |
| 20260503025529 | 52 | 267 | 4.0 | 10.0 | 0.00 | 0.00 | 0.00 | 85 | 1010.7 |
| 20260503025029 | 52 | 207 | 3.0 | 12.0 | 0.00 | 0.00 | 0.00 | 85 | 1010.6 |
| 20260503024548 | 52 | 234 | 5.0 | 12.0 | 0.00 | 0.00 | 0.00 | 85 | 1010.6 |
| 20260503024031 | 52 | 231 | 4.0 | 12.0 | 0.00 | 0.00 | 0.00 | 85 | 1010.5 |
| 20260503023529 | 52 | 263 | 5.0 | 12.0 | 0.00 | 0.00 | 0.00 | 85 | 1010.5 |
| 20260503023044 | 52 | 271 | 4.0 | 9.0 | 0.00 | 0.00 | 0.00 | 85 | 1010.6 |
| 20260503022528 | 52 | 260 | 5.0 | 10.0 | 0.00 | 0.00 | 0.00 | 85 | 1010.5 |
| 20260503022030 | 52 | 239 | 4.0 | 10.0 | 0.00 | 0.00 | 0.00 | 84 | 1010.6 |
| 20260503021538 | 53 | 255 | 4.0 | 10.0 | 0.00 | 0.00 | 0.00 | 84 | 1010.7 |
| 20260503021030 | 53 | 271 | 4.0 | 12.0 | 0.00 | 0.00 | 0.00 | 83 | 1010.6 |
| 20260503020531 | 53 | 255 | 4.0 | 12.0 | 0.00 | 0.00 | 0.00 | 83 | 1010.7 |
| 20260503020048 | 53 | 249 | 4.0 | 10.0 | 0.00 | 0.00 | 0.00 | 83 | 1010.7 |
| 20260503015530 | 53 | 267 | 6.0 | 13.0 | 0.00 | 0.00 | 0.00 | 82 | 1010.8 |
| 20260503015029 | 53 | 238 | 6.0 | 15.0 | 0.00 | 0.00 | 0.00 | 82 | 1010.9 |
| 20260503014600 | 53 | 290 | 5.0 | 15.0 | 0.00 | 0.00 | 0.00 | 81 | 1010.8 |
| 20260503014030 | 53 | 292 | 6.0 | 14.0 | 0.00 | 0.00 | 0.00 | 81 | 1010.9 |
| 20260503013529 | 53 | 298 | 5.0 | 14.0 | 0.00 | 0.00 | 0.00 | 81 | 1010.8 |
| 20260503013045 | 53 | 286 | 6.0 | 13.0 | 0.00 | 0.00 | 0.00 | 80 | 1010.8 |
| 20260503012531 | 54 | 280 | 6.0 | 13.0 | 0.00 | 0.00 | 0.00 | 80 | 1010.8 |
| 20260503012033 | 54 | 275 | 5.0 | 12.0 | 0.00 | 0.00 | 0.00 | 81 | 1011.0 |
| 20260503011552 | 54 | 307 | 5.0 | 14.0 | 0.00 | 0.00 | 0.00 | 81 | 1010.8 |
| 20260503011032 | 54 | 286 | 5.0 | 14.0 | 0.00 | 0.00 | 0.00 | 80 | 1010.9 |
| 20260503010530 | 54 | 229 | 6.0 | 13.0 | 0.00 | 0.00 | 0.00 | 80 | 1011.0 |
| 20260503010039 | 54 | 269 | 6.0 | 14.0 | 0.00 | 0.00 | 0.00 | 79 | 1010.9 |
| 20260503005530 | 55 | 261 | 7.0 | 14.0 | 0.00 | 0.00 | 0.00 | 79 | 1010.8 |
| 20260503005029 | 55 | 245 | 5.0 | 15.0 | 0.00 | 0.00 | 0.00 | 78 | 1010.9 |
| 20260503004539 | 55 | 194 | 6.0 | 15.0 | 0.00 | 0.00 | 0.00 | 78 | 1010.9 |
| 20260503004030 | 56 | 281 | 5.0 | 11.0 | 0.00 | 0.00 | 0.00 | 78 | 1010.9 |
| 20260503003529 | 56 | 238 | 4.0 | 11.0 | 0.00 | 0.00 | 0.00 | 78 | 1011.0 |
| 20260503003044 | 55 | 260 | 6.0 | 13.0 | 0.00 | 0.00 | 0.00 | 78 | 1011.0 |
| 20260503002529 | 55 | 287 | 6.0 | 13.0 | 0.00 | 0.00 | 0.00 | 78 | 1011.0 |
| 20260503002029 | 55 | 266 | 7.0 | 13.0 | 0.00 | 0.00 | 0.00 | 78 | 1011.0 |
| 20260503001544 | 56 | 215 | 5.0 | 14.0 | 0.00 | 0.00 | 0.00 | 77 | 1011.1 |
| 20260503001029 | 56 | 256 | 6.0 | 14.0 | 0.00 | 0.00 | 0.00 | 77 | 1011.1 |
| 20260503000529 | 56 | 241 | 6.0 | 14.0 | 0.00 | 0.00 | 0.00 | 77 | 1011.1 |
| 20260503000045 | 57 | 289 | 7.0 | 14.0 | 0.00 | 0.00 | 0.00 | 77 | 1011.1 |
| 20260502235529 | 57 | 269 | 5.0 | 14.0 | 0.00 | 0.00 | 0.00 | 77 | 1011.1 |
| 20260502235029 | 57 | 263 | 5.0 | 14.0 | 0.00 | 0.00 | 0.00 | 77 | 1011.2 |
| 20260502234606 | 57 | 205 | 5.0 | 13.0 | 0.00 | 0.00 | 0.00 | 77 | 1011.2 |
| 20260502234029 | 57 | 246 | 5.0 | 13.0 | 0.00 | 0.00 | 0.00 | 76 | 1011.2 |
| 20260502233530 | 57 | 311 | 5.0 | 13.0 | 0.00 | 0.00 | 0.00 | 77 | 1011.3 |
| 20260502233037 | 57 | 286 | 5.0 | 13.0 | 0.00 | 0.00 | 0.00 | 76 | 1011.3 |
| 20260502232529 | 57 | 264 | 6.0 | 13.0 | 0.00 | 0.00 | 0.00 | 77 | 1011.3 |
| 20260502232034 | 57 | 265 | 6.0 | 13.0 | 0.00 | 0.00 | 0.00 | 77 | 1011.3 |
| 20260502231537 | 57 | 336 | 6.0 | 16.0 | 0.00 | 0.00 | 0.00 | 78 | 1011.4 |
| 20260502231029 | 57 | 292 | 6.0 | 16.0 | 0.00 | 0.00 | 0.00 | 78 | 1011.5 |
| 20260502230529 | 57 | 284 | 6.0 | 15.0 | 0.00 | 0.00 | 0.00 | 77 | 1011.6 |
| 20260502230045 | 57 | 236 | 6.0 | 15.0 | 0.00 | 0.00 | 0.00 | 77 | 1011.7 |
| 20260502225529 | 58 | 287 | 7.0 | 18.0 | 0.00 | 0.00 | 0.00 | 76 | 1011.6 |
| 20260502225029 | 58 | 270 | 6.0 | 18.0 | 0.00 | 0.00 | 0.00 | 77 | 1011.6 |
| 20260502224544 | 57 | 235 | 7.0 | 16.0 | 0.00 | 0.00 | 0.00 | 77 | 1011.7 |
| 20260502224031 | 57 | 296 | 6.0 | 17.0 | 0.00 | 0.00 | 0.00 | 77 | 1011.8 |
| 20260502223529 | 57 | 279 | 9.0 | 17.0 | 0.00 | 0.00 | 0.00 | 78 | 1011.9 |
| 20260502223057 | 57 | 290 | 10.0 | 17.0 | 0.00 | 0.00 | 0.00 | 78 | 1011.9 |
| 20260502222529 | 57 | 202 | 7.0 | 15.0 | 0.00 | 0.00 | 0.00 | 78 | 1011.8 |
| 20260502222029 | 57 | 263 | 6.0 | 15.0 | 0.00 | 0.00 | 0.00 | 79 | 1012.0 |
| 20260502221541 | 57 | 292 | 6.0 | 14.0 | 0.00 | 0.00 | 0.00 | 79 | 1012.1 |
| 20260502221029 | 58 | 277 | 5.0 | 19.0 | 0.00 | 0.00 | 0.00 | 79 | 1012.3 |
| 20260502220529 | 57 | 249 | 8.0 | 19.0 | 0.00 | 0.00 | 0.00 | 80 | 1012.3 |
| 20260502220040 | 57 | 288 | 7.0 | 15.0 | 0.00 | 0.00 | 0.00 | 79 | 1012.3 |
| 20260502215530 | 57 | 246 | 6.0 | 14.0 | 0.00 | 0.00 | 0.00 | 79 | 1012.2 |
| 20260502215029 | 57 | 276 | 6.0 | 14.0 | 0.00 | 0.00 | 0.00 | 78 | 1012.4 |
| 20260502214539 | 58 | 286 | 5.0 | 14.0 | 0.00 | 0.00 | 0.00 | 79 | 1012.3 |
| 20260502214032 | 57 | 281 | 5.0 | 15.0 | 0.00 | 0.00 | 0.00 | 79 | 1012.5 |
| 20260502213529 | 57 | 313 | 7.0 | 15.0 | 0.00 | 0.00 | 0.00 | 78 | 1012.5 |
| 20260502213044 | 57 | 265 | 8.0 | 16.0 | 0.00 | 0.00 | 0.00 | 79 | 1012.4 |
| 20260502212529 | 56 | 261 | 7.0 | 16.0 | 0.00 | 0.00 | 0.00 | 80 | 1012.5 |
| 20260502212031 | 56 | 287 | 8.0 | 16.0 | 0.00 | 0.00 | 0.00 | 79 | 1012.5 |
| 20260502211543 | 57 | 292 | 8.0 | 15.0 | 0.00 | 0.00 | 0.00 | 79 | 1012.6 |
| 20260502211029 | 57 | 273 | 8.0 | 15.0 | 0.00 | 0.00 | 0.00 | 78 | 1012.6 |
| 20260502210529 | 58 | 239 | 7.0 | 16.0 | 0.00 | 0.00 | 0.00 | 77 | 1012.6 |
| 20260502210042 | 58 | 219 | 6.0 | 16.0 | 0.00 | 0.00 | 0.00 | 77 | 1012.5 |
| 20260502205529 | 59 | 270 | 4.0 | 12.0 | 0.00 | 0.00 | 0.00 | 76 | 1012.7 |
| 20260502205029 | 57 | 256 | 7.0 | 13.0 | 0.00 | 0.00 | 0.00 | 78 | 1012.8 |
| 20260502204540 | 57 | 280 | 6.0 | 14.0 | 0.00 | 0.00 | 0.00 | 78 | 1012.8 |
| 20260502204034 | 58 | 267 | 5.0 | 14.0 | 0.00 | 0.00 | 0.00 | 78 | 1012.9 |
| 20260502203532 | 57 | 279 | 5.0 | 13.0 | 0.00 | 0.00 | 0.00 | 79 | 1012.8 |
| 20260502203045 | 57 | 242 | 4.0 | 13.0 | 0.00 | 0.00 | 0.00 | 80 | 1012.9 |